Regional Weather Roundup
Issued by NWS

Home | Current Version | Previous Version | Text Only | Print | Product List | Glossary Off
Versions: 1 2 3 4 5 6 7 8 9 10 11 12 13 14 15 16 17 18 19 20 21 22 23 24 25 26 27 28 29 30 31 32 33 34 35 36 37 38 39 40 41 42 43 44 45 46 47 48 49 50

584
ASUS43 KMPX 250810
RWRMN
WEATHER ROUNDUP FOR MINNESOTA
NATIONAL WEATHER SERVICE TWIN CITIES/CHANHASSEN MN
300 AM CDT TUE APR 25 2017


NOTE: "FAIR" INDICATES FEW OR NO CLOUDS BELOW 12,000 FEET WITH NO
SIGNIFICANT WEATHER AND/OR OBSTRUCTIONS TO VISIBILITY. N/A MEANS
CURRENT SKY AND/OR WEATHER CONDITIONS ARE NOT AVAILABLE.

MNZ060>063-068>070-250900-
   Twin Cities Metro

CITY           SKY/WX    TMP DP  RH WIND       PRES   REMARKS
TWIN CITIES    CLOUDY    61  35  37 SE10      29.49F
ST PAUL        CLOUDY    61  37  41 SE10      29.50F
CRYSTAL        CLOUDY    61  34  36 SE9       29.48F
LAKEVILLE      CLOUDY    59  36  41 SE7       29.50F
EDEN PRAIRIE   CLOUDY    61  37  41 SE8       29.48F
SOUTH ST PAUL  CLOUDY    61  33  35 SE6       29.50F
LAKE ELMO      CLOUDY    61  34  36 SE6       29.52F
$$
MNZ001>005-007-008-013>017-022>024-027-028-250900-
   Northwest Minnesota

CITY           SKY/WX    TMP DP  RH WIND       PRES   REMARKS
BEMIDJI        CLOUDY    38  38  99 N5        29.58F
HALLOCK        CLOUDY    30  28  93 N17       29.74S WCI  18
ROSEAU         CLOUDY    30  27  86 NE15      29.70S WCI  19
WARROAD        CLOUDY    32  28  86 N12G18    29.70S WCI  23
THIEF RVR FALL CLOUDY    32  31  96 N16G23    29.67R WCI  21
CROOKSTON      CLOUDY    32  32 100 N16G22    29.69R WCI  21
FOSSTON        CLOUDY    34  34 100 N14       29.62R FOG     WCI  24
DETROIT LAKES  FOG       36  36 100 NW17      29.58S VSB 3/4
MOORHEAD       CLOUDY    34  32  93 N24       29.64S WCI  21
PARK RAPIDS    CLOUDY    44  39  82 N5        29.54S
MAHNOMEN       CLOUDY    35  35  99 N17       29.59F FOG     WCI  25
$$
MNZ006-009>011-018-025>026-250900-
   North Central Minnesota

CITY           SKY/WX    TMP DP  RH WIND       PRES   REMARKS
BAUDETTE       CLOUDY    33  31  92 NE10      29.65F WCI  25
FLAG ISLAND    FLURRIES  30  28  93 NE15      29.71S WCI  19
INTL FALLS     LGT RAIN  36  34  92 NE7       29.63F
WASKISH        CLOUDY    36  36 100 NE7       29.63R
BIG FORK       CLOUDY    37  36  93 CALM      29.59S
LONGVILLE      CLOUDY    39  37  93 CALM      29.55S
GRAND RAPIDS   CLOUDY    38  35  89 CALM      29.58F
CRANE LAKE     RAIN      34  34 100 CALM      29.63F
ORR            DRIZZLE   36  34  93 CALM      29.58S
COOK           DRIZZLE   36  36 100 CALM      29.60S
WALKER         CLOUDY    39  37  93 NE3       29.55F
$$
MNZ012-019>021-037-250900-
   Northeast Minnesota

CITY           SKY/WX    TMP DP  RH WIND       PRES   REMARKS
DULUTH         LGT RAIN  40  36  86 SE10      29.60F
ELY            DRIZZLE   36  36 100 CALM      29.61F
HIBBING        LGT RAIN  36  35  96 E3        29.58F
EVELETH        DRIZZLE   37  35  91 NE5       29.60F
DULUTH HARBOR  CLOUDY    39  37  93 E18       29.64F
TWO HARBORS    CLOUDY    45  37  76 N3        29.60F
SILVER BAY     DRIZZLE   43  36  75 NE10G16   29.63R
GRAND MARAIS     N/A     47  35  63 NE10      29.64F
G MARAIS ARPRT CLOUDY    36  28  75 N10       29.65F
$$
MNZ029>031-032-039>041-046>048-054>057-064-250900-
   West Central Minnesota

CITY           SKY/WX    TMP DP  RH WIND       PRES   REMARKS
FERGUS FALLS   FOG       36  36 100 N15       29.58S VSB 3/4
WHEATON        CLOUDY    36  34  93 NW21G26   29.62S FOG
MORRIS         CLOUDY    37  37 100 NW22G28   29.55S FOG
ALEXANDRIA     CLOUDY    43  43 100 NW10      29.53F FOG
ELBOW LAKE     FOG       37  37 100 W18       29.56F VSB 1/2
WADENA         CLOUDY    43  43 100 N6        29.53S
GLENWOOD       FOG       41  41 100 W13       29.52F VSB 3/4
APPLETON       CLOUDY    39  37  93 NW16G22   29.57S
BENSON         CLOUDY    41  36  81 N16       29.56F
ORTONVILLE     CLOUDY    37  34  87 NW17G26   29.57F
MADISON        CLOUDY    41  41 100 NW15      29.57F
WILLMAR        CLOUDY    43  43 100 NW13      29.53F
$$
MNZ033>034-036-042>043-049>051-058-059-250900-
   Central Minnesota

CITY           SKY/WX    TMP DP  RH WIND       PRES   REMARKS
ST CLOUD       CLOUDY    55  46  71 E8        29.48F
SAUK CENTRE    CLOUDY    45  44  98 NW8       29.51S FOG
PAYNESVILLE    CLOUDY    46  46 100 W10       29.51S FOG
AITKIN         MIX PCPN  41  36  81 E5        29.53F
PINE RIVER     CLOUDY    39  39 100 NE3       29.58S
BRAINERD       LGT RAIN  43  40  89 NE5       29.52F
STAPLES        CLOUDY    43  41  93 N3        29.52S
LONG PRAIRIE   CLOUDY    48  45  87 SW5       29.51S
LITTLE FALLS   CLOUDY    50  45  81 CALM      29.50F
LITCHFIELD     CLOUDY    54  50  87 NW8       29.49F
BUFFALO        CLOUDY    59  39  48 SE5       29.49S
MAPLE LAKE     CLOUDY    55  47  75 CALM      29.49F
HUTCHINSON     PTCLDY    49  47  93 W7        29.50S
$$
MNZ037-044-045-052-053-250900-
   East Central Minnesota

CITY           SKY/WX    TMP DP  RH WIND       PRES   REMARKS
PRINCETON      CLOUDY    57  45  62 NE6       29.50F
MORA           CLOUDY    41  34  75 E5        29.54F
CAMBRIDGE      CLOUDY    57  45  62 NE3       29.48F
RUSH CITY      CLOUDY    56  43  62 E6        29.51F
MOOSE LAKE     LGT RAIN  36  34  93 E5        29.56F
HINCKLEY       CLOUDY    41  37  87 NE8       29.54F
CLOQUET        LGT RAIN  37  34  87 E7        29.60S
MCGREGOR       CLOUDY    37  36  93 E6        29.56F
$$
MNZ071>073-080-081-089-090-097-098-250900-
   Southwest Minnesota

CITY           SKY/WX    TMP DP  RH WIND       PRES   REMARKS
MONTEVIDEO     CLOUDY    39  37  93 N14       29.55F
GRANITE FALLS  CLOUDY    41  40  93 NW15      29.56F
CANBY          CLOUDY    39  37  93 NW12G18   29.58F
MARSHALL       CLOUDY    39  37  92 NW15      29.55F
REDWOOD FALLS  CLOUDY    43  39  86 NW13G24   29.52S
OLIVIA         CLOUDY    41  39  93 NW15G23   29.52S
PIPESTONE      CLOUDY    43  37  81 N9        29.55S
WINDOM         CLOUDY    43  41  93 NW16      29.52F
WORTHINGTON    CLOUDY    41  39  93 N13       29.53F
JACKSON        MOCLDY    45  41  87 N10       29.52F
TRACY          CLOUDY    40  39  95 NW16G25   29.55F
SLAYTON        CLOUDY    40  39  96 NW12      29.53F
$$
MNZ065>067-074>077-082>085-091>093-250900-
   South Central Minnesota

CITY           SKY/WX    TMP DP  RH WIND       PRES   REMARKS
MANKATO        CLOUDY    59  37  44 SW8       29.50S
NEW ULM        CLOUDY    46  45  93 NW10      29.51S
ST JAMES       CLOUDY    48  45  87 W13       29.52S
GLENCOE        MOCLDY    57  44  62 S3        29.47F
FARIBAULT      CLOUDY    63  34  34 S10       29.51F
OWATONNA       CLOUDY    61  32  33 SE13      29.51F
WASECA         CLOUDY    59  34  38 SE8       29.51F
ALBERT LEA     CLOUDY    57  34  41 S7        29.51F
$$
MNZ078>079-086>088-094>096-250900-
   Southeast Minnesota

CITY           SKY/WX    TMP DP  RH WIND       PRES   REMARKS
ROCHESTER      CLOUDY    58  33  39 S17       29.55F
RED WING       CLOUDY    63  28  27 SE12      29.52F
DODGE CENTER   CLOUDY    57  34  41 S14       29.54S
WINONA         CLOUDY    61  32  33 SE9       29.57F
AUSTIN         CLOUDY    57  34  41 S7        29.53F
PRESTON        CLOUDY    58  31  35 S13       29.57F
$$
ABBREVIATIONS USED IN REMARKS
   TC - TEMPERATURES IN CELSIUS
  WCI - WIND CHILL INDEX
   HX - HEAT INDEX
  VSB - VISIBILITY
$$




USA.gov is the U.S. government's official web portal to all federal, state and local government web resources and services.